,,Stat6,,Stat2,,Stat8,,Stat9,,Stat10,,Wind1,,Wind1,
time,status,PA1M_AVG,status,PR1M_SUM,status,RH1M_AVG,status,SR1M_AVG,status,TA1M_AVG,status,W1dAve1m,status,W1sAve1m,
2008-01-27, 07:00:01,VALID,915.962,VALID,0,VALID,99.1445,VALID,45.2369,VALID,19.8476,VALID,146,VALID,2.26786,
2008-01-27, 07:01:00,VALID,915.973,VALID,0,VALID,99.0427,VALID,44.7615,VALID,19.8705,VALID,153,VALID,1.85423,
2008-01-27, 07:02:00,VALID,915.968,VALID,0,VALID,99.0237,VALID,51.7746,VALID,19.8862,VALID,136,VALID,1.04249,
2008-01-27, 07:03:00,VALID,915.961,VALID,0,VALID,99.0211,VALID,54.2028,VALID,19.9162,VALID,140,VALID,1.32664,
2008-01-27, 07:04:00,VALID,915.978,VALID,0,VALID,99.0033,VALID,54.8141,VALID,19.9157,VALID,136,VALID,1.76163,
2008-01-27, 07:05:01,VALID,915.969,VALID,0,VALID,99.0211,VALID,53.999,VALID,19.9062,VALID,136,VALID,1.44252,
2008-01-27, 07:06:00,VALID,915.966,VALID,0,VALID,99.0605,VALID,43.437,VALID,19.9132,VALID,144,VALID,1.54554,
2008-01-27, 07:07:00,VALID,915.972,VALID,0,VALID,98.9652,VALID,37.5616,VALID,19.9164,VALID,136,VALID,1.69159,
2008-01-27, 07:08:00,VALID,915.964,VALID,0,VALID,98.9537,VALID,41.1955,VALID,19.9224,VALID,135,VALID,1.72885,
2008-01-27, 07:09:00,VALID,915.955,VALID,0,VALID,98.8812,VALID,43.42,VALID,19.9159,VALID,135,VALID,1.85271,
2008-01-27, 07:10:00,VALID,915.949,VALID,0,VALID,98.9308,VALID,38.4955,VALID,19.9224,VALID,137,VALID,1.62305,
2008-01-27, 07:11:00,VALID,915.944,VALID,0,VALID,98.8774,VALID,41.7898,VALID,19.9259,VALID,143,VALID,1.27477,
2008-01-27, 07:12:01,VALID,915.964,VALID,0,VALID,98.8329,VALID,47.801,VALID,19.9354,VALID,131,VALID,1.78735,
2008-01-27, 07:13:00,VALID,915.971,VALID,0,VALID,98.7617,VALID,51.6387,VALID,19.9384,VALID,136,VALID,1.73047,
2008-01-27, 07:14:00,VALID,915.974,VALID,0,VALID,98.6803,VALID,54.1519,VALID,19.9479,VALID,136,VALID,1.60819,
2008-01-27, 07:15:00,VALID,915.998,VALID,0,VALID,98.5583,VALID,62.9649,VALID,19.9644,VALID,137,VALID,1.70952,
2008-01-27, 07:16:00,VALID,916.019,VALID,0,VALID,98.2785,VALID,74.9704,VALID,19.9808,VALID,138,VALID,1.95815,
2008-01-27, 07:17:00,VALID,916.027,VALID,0,VALID,98.0051,VALID,93.2927,VALID,20.0195,VALID,141,VALID,1.62908,
2008-01-27, 07:18:00,VALID,916.041,VALID,0,VALID,97.9809,VALID,94.1247,VALID,20.0909,VALID,132,VALID,1.08036,
2008-01-27, 07:19:00,VALID,916.055,VALID,0,VALID,97.9212,VALID,89.2852,VALID,20.1236,VALID,137,VALID,1.57734,
2008-01-27, 07:20:01,VALID,916.041,VALID,0,VALID,97.7114,VALID,85.8381,VALID,20.1301,VALID,150,VALID,2.05689,
2008-01-27, 07:21:00,VALID,916.053,VALID,0,VALID,97.6643,VALID,85.5664,VALID,20.1331,VALID,131,VALID,1.55895,
2008-01-27, 07:22:00,VALID,916.074,VALID,0,VALID,97.6872,VALID,87.0947,VALID,20.1628,VALID,123,VALID,1.84102,
2008-01-27, 07:23:00,VALID,916.085,VALID,0,VALID,97.677,VALID,91.3399,VALID,20.1695,VALID,133,VALID,1.83448,
2008-01-27, 07:24:00,VALID,916.079,VALID,0,VALID,97.6554,VALID,92.9531,VALID,20.1693,VALID,127,VALID,2.09943,
2008-01-27, 07:25:00,VALID,916.074,VALID,0,VALID,97.7381,VALID,92.0191,VALID,20.189,VALID,128,VALID,1.40755,
2008-01-27, 07:26:01,VALID,916.074,VALID,0,VALID,97.8042,VALID,93.1399,VALID,20.2217,VALID,140,VALID,1.39099,
2008-01-27, 07:27:00,VALID,916.081,VALID,0,VALID,97.7203,VALID,93.1568,VALID,20.221,VALID,140,VALID,1.88834,
2008-01-27, 07:28:01,VALID,916.086,VALID,0,VALID,97.6465,VALID,91.6625,VALID,20.2307,VALID,129,VALID,1.84555,
2008-01-27, 07:29:01,VALID,916.111,VALID,0,VALID,97.6224,VALID,92.155,VALID,20.2469,VALID,137,VALID,1.49165,
2008-01-27, 07:30:00,VALID,916.122,VALID,0,VALID,97.4837,VALID,97.47,VALID,20.2666,VALID,137,VALID,2.00149,
2008-01-27, 07:31:01,VALID,916.144,VALID,0,VALID,97.5295,VALID,104.177,VALID,20.2826,VALID,148,VALID,1.53678,
2008-01-27, 07:32:00,VALID,916.137,VALID,0,VALID,97.115,VALID,107.641,VALID,20.2888,VALID,137,VALID,1.99721,
2008-01-27, 07:33:00,VALID,916.144,VALID,0,VALID,97.2663,VALID,114.383,VALID,20.3053,VALID,152,VALID,0.977108,
2008-01-27, 07:34:00,VALID,916.156,VALID,0,VALID,97.4736,VALID,146.596,VALID,20.3537,VALID,139,VALID,0.603423,
2008-01-27, 07:35:00,VALID,916.166,VALID,0,VALID,97.3909,VALID,122.72,VALID,20.4157,VALID,147,VALID,1.46818,
2008-01-27, 07:36:01,VALID,916.156,VALID,0,VALID,97.1442,VALID,132.298,VALID,20.4421,VALID,155,VALID,1.90625,
2008-01-27, 07:37:01,VALID,916.169,VALID,0,VALID,96.8212,VALID,137.188,VALID,20.4479,VALID,150,VALID,1.73493,
2008-01-27, 07:38:00,VALID,916.153,VALID,0,VALID,96.8441,VALID,147.054,VALID,20.4746,VALID,155,VALID,1.68229,
2008-01-27, 07:39:01,VALID,916.142,VALID,0,VALID,96.6102,VALID,158.907,VALID,20.4906,VALID,148,VALID,2.40874,
2008-01-27, 07:40:00,VALID,916.152,VALID,0,VALID,96.6419,VALID,161.844,VALID,20.5235,VALID,153,VALID,1.7571,
2008-01-27, 07:41:00,VALID,916.16,VALID,0,VALID,96.3355,VALID,147.835,VALID,20.5449,VALID,148,VALID,2.49909,
2008-01-27, 07:42:00,VALID,916.151,VALID,0,VALID,95.9807,VALID,159.45,VALID,20.5392,VALID,156,VALID,2.08452,
2008-01-27, 07:43:00,VALID,916.149,VALID,0,VALID,96.029,VALID,171.337,VALID,20.5847,VALID,161,VALID,1.91063,
2008-01-27, 07:44:00,VALID,916.163,VALID,0,VALID,96.0405,VALID,219.664,VALID,20.6304,VALID,152,VALID,1.87148,
2008-01-27, 07:45:01,VALID,916.159,VALID,0,VALID,95.9947,VALID,209.679,VALID,20.6726,VALID,152,VALID,2.02734,
2008-01-27, 07:46:00,VALID,916.159,VALID,0,VALID,95.72,VALID,189.302,VALID,20.6723,VALID,150,VALID,2.4697,
2008-01-27, 07:47:00,VALID,916.185,VALID,0,VALID,95.9286,VALID,260.792,VALID,20.702,VALID,146,VALID,1.94039,
2008-01-27, 07:48:00,VALID,916.18,VALID,0,VALID,95.6514,VALID,251.486,VALID,20.7375,VALID,149,VALID,1.97148,
2008-01-27, 07:49:00,VALID,916.19,VALID,0,VALID,95.907,VALID,274.903,VALID,20.7994,VALID,143,VALID,1.8228,
2008-01-27, 07:50:00,VALID,916.208,VALID,0,VALID,95.809,VALID,298.931,VALID,20.8862,VALID,147,VALID,1.44531,
2008-01-27, 07:51:01,VALID,916.221,VALID,0,VALID,95.5191,VALID,321.379,VALID,21.0198,VALID,146,VALID,1.81231,
2008-01-27, 07:52:01,VALID,916.232,VALID,0,VALID,95.1542,VALID,324.045,VALID,21.1364,VALID,155,VALID,0.850038,
2008-01-27, 07:53:01,VALID,916.219,VALID,0,VALID,94.6481,VALID,231.975,VALID,21.315,VALID,138,VALID,0.93641,
2008-01-27, 07:54:01,VALID,916.228,VALID,0,VALID,93.3816,VALID,141.79,VALID,21.4291,VALID,145,VALID,1.59132,
2008-01-27, 07:55:01,VALID,916.242,VALID,0,VALID,92.9009,VALID,325.438,VALID,21.5262,VALID,148,VALID,1.3853,
2008-01-27, 07:56:01,VALID,916.229,VALID,0,VALID,92.6275,VALID,268.518,VALID,21.6366,VALID,145,VALID,1.34555,
2008-01-27, 07:57:01,VALID,916.247,VALID,0,VALID,92.2524,VALID,166.242,VALID,21.7313,VALID,144,VALID,1.31975,
2008-01-27, 07:58:01,VALID,916.255,VALID,0,VALID,91.5466,VALID,235.762,VALID,21.7053,VALID,159,VALID,1.63565,
2008-01-27, 07:59:01,VALID,916.266,VALID,0,VALID,91.9052,VALID,211.683,VALID,21.6921,VALID,158,VALID,1.1033,
2008-01-27, 08:00:01,VALID,916.267,VALID,0,VALID,91.1944,VALID,160.842,VALID,21.6436,VALID,142,VALID,2.02663,
2008-01-27, 08:01:01,VALID,916.285,VALID,0,VALID,91.862,VALID,170.589,VALID,21.5817,VALID,153,VALID,1.7037,
2008-01-27, 08:02:00,VALID,916.3,VALID,0,VALID,91.8544,VALID,163.559,VALID,21.523,VALID,153,VALID,1.58746,
2008-01-27, 08:03:00,VALID,916.318,VALID,0,VALID,92.2079,VALID,209.391,VALID,21.5235,VALID,159,VALID,1.29897,
2008-01-27, 08:04:00,VALID,916.338,VALID,0,VALID,92.3846,VALID,205.128,VALID,21.5265,VALID,144,VALID,1.12729,
2008-01-27, 08:05:00,VALID,916.358,VALID,0,VALID,92.3846,VALID,238.003,VALID,21.5465,VALID,145,VALID,1.59409,
2008-01-27, 08:06:00,VALID,916.382,VALID,0,VALID,92.5041,VALID,270.352,VALID,21.517,VALID,155,VALID,1.64901,
2008-01-27, 08:07:00,VALID,916.404,VALID,0,VALID,92.3948,VALID,177.229,VALID,21.5408,VALID,150,VALID,1.49368,
2008-01-27, 08:08:00,VALID,916.437,VALID,0,VALID,92.7839,VALID,261.861,VALID,21.5698,VALID,164,VALID,1.34635,
2008-01-27, 08:09:00,VALID,916.455,VALID,0,VALID,91.979,VALID,176.397,VALID,21.5752,VALID,155,VALID,1.80689,
2008-01-27, 08:10:00,VALID,916.471,VALID,0,VALID,92.0654,VALID,179.963,VALID,21.5598,VALID,159,VALID,1.81777,
2008-01-27, 08:11:00,VALID,916.466,VALID,0,VALID,91.8582,VALID,166.022,VALID,21.5306,VALID,164,VALID,1.68023,
2008-01-27, 08:12:00,VALID,916.467,VALID,0,VALID,91.7018,VALID,156.19,VALID,21.4973,VALID,155,VALID,2.07736,
2008-01-27, 08:13:00,VALID,916.47,VALID,0,VALID,91.6191,VALID,152.878,VALID,21.4283,VALID,157,VALID,2.08873,
2008-01-27, 08:14:00,VALID,916.471,VALID,0,VALID,92.0604,VALID,151.537,VALID,21.3885,VALID,180,VALID,1.69141,
2008-01-27, 08:15:00,VALID,916.481,VALID,0,VALID,92.6796,VALID,153.15,VALID,21.4215,VALID,153,VALID,1.25391,
2008-01-27, 08:16:00,VALID,916.488,VALID,0,VALID,92.925,VALID,155.731,VALID,21.4478,VALID,158,VALID,1.36458,
2008-01-27, 08:17:00,VALID,916.486,VALID,0,VALID,93.023,VALID,154.39,VALID,21.431,VALID,165,VALID,2.16667,
2008-01-27, 08:18:00,VALID,916.495,VALID,0,VALID,92.658,VALID,156.054,VALID,21.3858,VALID,163,VALID,2.26363,
2008-01-27, 08:19:00,VALID,916.483,VALID,0,VALID,92.508,VALID,160.571,VALID,21.3117,VALID,154,VALID,2.02009,
2008-01-27, 08:20:00,VALID,916.479,VALID,0,VALID,93.2112,VALID,167.703,VALID,21.3366,VALID,155,VALID,1.44169,
2008-01-27, 08:21:00,VALID,916.484,VALID,0,VALID,93.1082,VALID,177.195,VALID,21.3661,VALID,155,VALID,1.64789,
2008-01-27, 08:22:00,VALID,916.487,VALID,0,VALID,92.6987,VALID,183.648,VALID,21.3501,VALID,149,VALID,1.6753,
2008-01-27, 08:23:00,VALID,916.483,VALID,0,VALID,92.7852,VALID,179.318,VALID,21.3853,VALID,151,VALID,1.5209,
2008-01-27, 08:24:00,VALID,916.475,VALID,0,VALID,92.3935,VALID,182.408,VALID,21.4118,VALID,160,VALID,2.32854,
2008-01-27, 08:25:00,VALID,916.484,VALID,0,VALID,92.2905,VALID,190.848,VALID,21.4061,VALID,150,VALID,1.89009,
2008-01-27, 08:26:00,VALID,916.498,VALID,0,VALID,92.9047,VALID,189.574,VALID,21.4475,VALID,171,VALID,1.28525,
2008-01-27, 08:27:00,VALID,916.48,VALID,0,VALID,92.8093,VALID,228.239,VALID,21.4859,VALID,173,VALID,1.89492,
2008-01-27, 08:28:00,VALID,916.483,VALID,0,VALID,92.8208,VALID,298.778,VALID,21.5084,VALID,171,VALID,1.80791,
2008-01-27, 08:29:00,VALID,916.476,VALID,0,VALID,92.9937,VALID,225.064,VALID,21.5836,VALID,191,VALID,1.32546,
2008-01-27, 08:30:00,VALID,916.454,VALID,0,VALID,93.0344,VALID,255.29,VALID,21.6872,VALID,179,VALID,1.50577,
2008-01-27, 08:31:00,VALID,916.458,VALID,0,VALID,91.7615,VALID,225.522,VALID,21.7556,VALID,168,VALID,2.47599,
2008-01-27, 08:32:00,VALID,916.454,VALID,0,VALID,91.4881,VALID,223.587,VALID,21.7297,VALID,161,VALID,1.85799,
2008-01-27, 08:33:00,VALID,916.443,VALID,0,VALID,91.3966,VALID,215.962,VALID,21.7553,VALID,173,VALID,2.09707,
2008-01-27, 08:34:00,VALID,916.451,VALID,0,VALID,91.5415,VALID,202.038,VALID,21.7654,VALID,163,VALID,2.15295,
2008-01-27, 08:35:00,VALID,916.448,VALID,0,VALID,91.4525,VALID,199.083,VALID,21.7981,VALID,160,VALID,2.13565,
2008-01-27, 08:36:00,VALID,916.45,VALID,0,VALID,91.6522,VALID,206.759,VALID,21.8141,VALID,168,VALID,1.90225,
2008-01-27, 08:37:00,VALID,916.448,VALID,0,VALID,91.6242,VALID,233.402,VALID,21.8603,VALID,146,VALID,2.06587,
2008-01-27, 08:38:00,VALID,916.448,VALID,0,VALID,91.1601,VALID,229.496,VALID,21.8606,VALID,167,VALID,2.08557,
2008-01-27, 08:39:00,VALID,916.445,VALID,0,VALID,90.996,VALID,219.443,VALID,21.8901,VALID,162,VALID,2.44386,
2008-01-27, 08:40:00,VALID,916.449,VALID,0,VALID,91.1626,VALID,240.313,VALID,21.8795,VALID,153,VALID,2.34575,
2008-01-27, 08:41:00,VALID,916.478,VALID,0,VALID,90.8676,VALID,233.3,VALID,21.8795,VALID,154,VALID,2.51474,
2008-01-27, 08:42:00,VALID,916.496,VALID,0,VALID,90.8396,VALID,226.456,VALID,21.8576,VALID,162,VALID,1.8162,
2008-01-27, 08:43:00,VALID,916.506,VALID,0,VALID,91.2656,VALID,284.87,VALID,21.8863,VALID,128,VALID,2.03348,
2008-01-27, 08:44:00,VALID,916.521,VALID,0,VALID,91.4169,VALID,278.231,VALID,21.9453,VALID,156,VALID,1.80287,
2008-01-27, 08:45:00,VALID,916.533,VALID,0,VALID,91.3597,VALID,290.916,VALID,22.0197,VALID,158,VALID,1.70352,
2008-01-27, 08:46:00,VALID,916.538,VALID,0,VALID,90.4708,VALID,365.835,VALID,22.0849,VALID,155,VALID,2.09318,
2008-01-27, 08:47:00,VALID,916.566,VALID,0,VALID,90.7214,VALID,349.33,VALID,22.1782,VALID,157,VALID,1.18555,
2008-01-27, 08:48:00,VALID,916.574,VALID,0,VALID,89.4892,VALID,339.413,VALID,22.2762,VALID,175,VALID,2.20527,
2008-01-27, 08:49:00,VALID,916.593,VALID,0,VALID,89.1636,VALID,315.962,VALID,22.3642,VALID,167,VALID,1.77071,
2008-01-27, 08:50:00,VALID,916.604,VALID,0,VALID,88.8432,VALID,313.789,VALID,22.448,VALID,177,VALID,1.68586,
2008-01-27, 08:51:00,VALID,916.623,VALID,0,VALID,89.0606,VALID,509.51,VALID,22.5348,VALID,164,VALID,1.4029,
2008-01-27, 08:52:00,VALID,916.616,VALID,0,VALID,88.299,VALID,551.945,VALID,22.6919,VALID,160,VALID,2.13053,
2008-01-27, 08:53:00,VALID,916.628,VALID,0,VALID,87.1151,VALID,550.79,VALID,22.7665,VALID,154,VALID,2.42708,
2008-01-27, 08:54:00,VALID,916.648,VALID,0,VALID,86.3992,VALID,609.187,VALID,22.8377,VALID,173,VALID,2.45201,
2008-01-27, 08:55:00,VALID,916.677,VALID,0,VALID,85.832,VALID,591.748,VALID,22.9027,VALID,167,VALID,2.61814,
2008-01-27, 08:56:00,VALID,916.694,VALID,0,VALID,85.9795,VALID,546.07,VALID,22.98,VALID,168,VALID,1.88512,
2008-01-27, 08:57:00,VALID,916.693,VALID,0,VALID,85.9999,VALID,575.344,VALID,23.0745,VALID,180,VALID,1.77656,
2008-01-27, 08:58:00,VALID,916.703,VALID,0,VALID,86.0164,VALID,570.743,VALID,23.27,VALID,166,VALID,1.76699,
2008-01-27, 08:59:00,VALID,916.702,VALID,0,VALID,86.024,VALID,499.101,VALID,23.3934,VALID,131,VALID,1.97547,
2008-01-27, 09:00:00,VALID,916.712,VALID,0,VALID,85.2255,VALID,358.38,VALID,23.3937,VALID,142,VALID,2.21857,
2008-01-27, 09:01:00,VALID,916.701,VALID,0,VALID,85.8816,VALID,329.717,VALID,23.3579,VALID,148,VALID,1.28906,
2008-01-27, 09:02:00,VALID,916.701,VALID,0,VALID,85.9783,VALID,281.389,VALID,23.3449,VALID,169,VALID,1.63224,
2008-01-27, 09:03:00,VALID,916.716,VALID,0,VALID,86.2962,VALID,263.339,VALID,23.3125,VALID,161,VALID,1.25056,
2008-01-27, 09:04:00,VALID,916.737,VALID,0,VALID,86.2707,VALID,251.062,VALID,23.3187,VALID,146,VALID,1.21894,
2008-01-27, 09:05:00,VALID,916.755,VALID,0,VALID,85.9935,VALID,319.664,VALID,23.2381,VALID,152,VALID,1.6319,
2008-01-27, 09:06:00,VALID,916.748,VALID,0,VALID,85.8333,VALID,344.083,VALID,23.1456,VALID,130,VALID,1.97802,
2008-01-27, 09:07:00,VALID,916.752,VALID,0,VALID,85.8371,VALID,238.207,VALID,22.9927,VALID,139,VALID,2.56892,
2008-01-27, 09:08:00,VALID,916.775,VALID,0,VALID,86.0813,VALID,229.377,VALID,22.8563,VALID,146,VALID,2.53743,
2008-01-27, 09:09:00,VALID,916.778,VALID,0,VALID,86.4208,VALID,218.238,VALID,22.7293,VALID,162,VALID,2.4667,
2008-01-27, 09:10:00,VALID,916.79,VALID,0,VALID,86.7921,VALID,206.827,VALID,22.6516,VALID,120,VALID,2.57151,
2008-01-27, 09:11:00,VALID,916.807,VALID,0,VALID,87.302,VALID,197.487,VALID,22.489,VALID,123,VALID,2.43887,
2008-01-27, 09:12:00,VALID,916.822,VALID,0,VALID,86.8302,VALID,186.704,VALID,22.3685,VALID,135,VALID,2.36537,
2008-01-27, 09:13:00,VALID,916.822,VALID,0,VALID,88.3918,VALID,172.525,VALID,22.3382,VALID,127,VALID,2.1724,
2008-01-27, 09:14:00,VALID,916.838,VALID,0,VALID,88.4261,VALID,160.044,VALID,22.3355,VALID,120,VALID,1.25572,
2008-01-27, 09:15:00,VALID,916.839,VALID,0,VALID,88.786,VALID,148.175,VALID,22.3382,VALID,79,VALID,1.3663,
2008-01-27, 09:16:00,VALID,916.866,VALID,0,VALID,88.7593,VALID,138.088,VALID,22.3485,VALID,109,VALID,1.34394,
2008-01-27, 09:17:00,VALID,916.875,VALID,0,VALID,89.1814,VALID,136.356,VALID,22.3544,VALID,111,VALID,1.00152,
2008-01-27, 09:18:00,VALID,916.864,VALID,0,VALID,89.1166,VALID,136.56,VALID,22.3355,VALID,50,VALID,1.52641,
2008-01-27, 09:19:00,VALID,916.871,VALID,0,VALID,89.2705,VALID,132.603,VALID,22.3517,VALID,79,VALID,1.22416,
2008-01-27, 09:20:00,VALID,916.874,VALID,0,VALID,89.2298,VALID,129.547,VALID,22.3447,VALID,75,VALID,2.14769,
2008-01-27, 09:21:00,VALID,916.872,VALID,0,VALID,87.5195,VALID,134.573,VALID,22.2115,VALID,81,VALID,2.78832,
2008-01-27, 09:22:00,VALID,916.87,VALID,0,VALID,88.1502,VALID,143.047,VALID,22.1564,VALID,106,VALID,2.15425,
2008-01-27, 09:23:00,VALID,916.874,VALID,0,VALID,89.1865,VALID,150.077,VALID,22.1702,VALID,90,VALID,1.613,
2008-01-27, 09:24:00,VALID,916.867,VALID,0,VALID,89.362,VALID,159.62,VALID,22.1602,VALID,68,VALID,1.37195,
2008-01-27, 09:25:00,VALID,916.853,VALID,0,VALID,88.8737,VALID,162.914,VALID,22.1507,VALID,109,VALID,2.81516,
2008-01-27, 09:26:00,VALID,916.874,VALID,0,VALID,89.3073,VALID,157.684,VALID,22.1242,VALID,102,VALID,1.13299,
2008-01-27, 09:27:00,VALID,916.877,VALID,0,VALID,89.7537,VALID,152.284,VALID,22.1726,VALID,102,VALID,1.36128,
2008-01-27, 09:28:00,VALID,916.908,VALID,0,VALID,89.1306,VALID,146.12,VALID,22.1731,VALID,108,VALID,2.41352,
2008-01-27, 09:29:00,VALID,916.883,VALID,0,VALID,88.9017,VALID,139.277,VALID,22.1044,VALID,77,VALID,2.65075,
2008-01-27, 09:30:00,VALID,916.917,VALID,0,VALID,89.5171,VALID,133.164,VALID,22.0719,VALID,108,VALID,1.97124,
2008-01-27, 09:31:00,VALID,916.951,VALID,0,VALID,89.9444,VALID,124.062,VALID,22.1012,VALID,112,VALID,1.48212,
2008-01-27, 09:32:00,VALID,916.961,VALID,0,VALID,88.9513,VALID,114.298,VALID,22.0752,VALID,135,VALID,1.53962,
2008-01-27, 09:33:00,VALID,916.984,VALID,0,VALID,89.348,VALID,116.285,VALID,22.0949,VALID,112,VALID,1.92533,
2008-01-27, 09:34:00,VALID,917.015,VALID,0,VALID,89.2361,VALID,122.296,VALID,22.0811,VALID,104,VALID,1.59785,
2008-01-27, 09:35:00,VALID,917.019,VALID,0,VALID,89.5337,VALID,130.362,VALID,22.0852,VALID,139,VALID,1.11585,
2008-01-27, 09:36:00,VALID,917.045,VALID,0,VALID,89.8948,VALID,130.6,VALID,22.1239,VALID,92,VALID,0.57793,
2008-01-27, 09:37:00,VALID,917.068,VALID,0,VALID,89.6646,VALID,126.762,VALID,22.1534,VALID,117,VALID,1.37444,
2008-01-27, 09:38:00,VALID,917.078,VALID,0,VALID,88.6397,VALID,129.598,VALID,22.1014,VALID,107,VALID,1.57402,
2008-01-27, 09:39:00,VALID,917.087,VALID,0,VALID,88.7097,VALID,135.813,VALID,22.0911,VALID,155,VALID,1.31269,
2008-01-27, 09:40:00,VALID,917.076,VALID,0,VALID,88.9767,VALID,137.579,VALID,22.1271,VALID,127,VALID,1.20503,
2008-01-27, 09:41:00,VALID,917.096,VALID,0,VALID,88.5329,VALID,134.233,VALID,22.1304,VALID,135,VALID,1.52153,
2008-01-27, 09:42:00,VALID,917.108,VALID,0,VALID,89.0962,VALID,131.296,VALID,22.1401,VALID,136,VALID,1.12344,
2008-01-27, 09:43:00,VALID,917.108,VALID,0,VALID,89.6011,VALID,130.651,VALID,22.1528,VALID,120,VALID,1.09832,
2008-01-27, 09:44:00,VALID,917.114,VALID,0,VALID,89.423,VALID,132.043,VALID,22.1826,VALID,147,VALID,1.76635,
2008-01-27, 09:45:00,VALID,917.122,VALID,0,VALID,88.9526,VALID,135.218,VALID,22.1304,VALID,114,VALID,1.66025,
2008-01-27, 09:46:00,VALID,917.098,VALID,0,VALID,89.5985,VALID,136.305,VALID,22.0982,VALID,72,VALID,2.41273,
2008-01-27, 09:47:00,VALID,917.126,VALID,0,VALID,89.8554,VALID,135.218,VALID,22.0495,VALID,93,VALID,1.55625,
2008-01-27, 09:48:00,VALID,917.096,VALID,0,VALID,89.5439,VALID,134.93,VALID,22.0138,VALID,59,VALID,2.56745,
2008-01-27, 09:49:00,VALID,917.128,VALID,0,VALID,90.1809,VALID,134.505,VALID,22.0395,VALID,128,VALID,1.66211,
2008-01-27, 09:50:00,VALID,917.135,VALID,0,VALID,89.4714,VALID,130.99,VALID,22.0498,VALID,121,VALID,1.29251,
2008-01-27, 09:51:00,VALID,917.141,VALID,0,VALID,89.1128,VALID,116.692,VALID,22.0589,VALID,142,VALID,2.11496,
2008-01-27, 09:52:00,VALID,917.158,VALID,0,VALID,89.3747,VALID,59.1612,VALID,22.0784,VALID,86,VALID,1.36779,
2008-01-27, 09:53:00,VALID,917.166,VALID,0,VALID,89.2298,VALID,62.3366,VALID,22.0849,VALID,100,VALID,2.09393,
2008-01-27, 09:54:00,VALID,917.138,VALID,0,VALID,88.992,VALID,61.3348,VALID,22.0622,VALID,119,VALID,1.97783,
2008-01-27, 09:55:00,VALID,917.131,VALID,0,VALID,88.9042,VALID,147.767,VALID,22.0365,VALID,105,VALID,1.28736,
2008-01-27, 09:56:00,VALID,917.136,VALID,0,VALID,88.936,VALID,184.395,VALID,22.0533,VALID,114,VALID,1.35229,
2008-01-27, 09:57:00,VALID,917.126,VALID,0,VALID,88.8877,VALID,202.479,VALID,22.0752,VALID,110,VALID,1.79004,
2008-01-27, 09:58:00,VALID,917.106,VALID,0,VALID,89.3976,VALID,212.583,VALID,22.1165,VALID,53,VALID,1.46341,
2008-01-27, 09:59:00,VALID,917.1,VALID,0,VALID,88.1832,VALID,220.989,VALID,22.1466,VALID,102,VALID,2.09499,
2008-01-27, 10:00:00,VALID,917.097,VALID,0,VALID,88.0192,VALID,232.977,VALID,22.1528,VALID,117,VALID,1.83184,
2008-01-27, 10:01:00,VALID,917.092,VALID,0,VALID,88.5189,VALID,254.356,VALID,22.2172,VALID,107,VALID,1.38263,
2008-01-27, 10:02:00,VALID,917.095,VALID,0,VALID,88.3079,VALID,304.161,VALID,22.2762,VALID,76,VALID,0.68314,
2008-01-27, 10:03:00,VALID,917.103,VALID,0,VALID,88.6334,VALID,326.287,VALID,22.4418,VALID,112,VALID,0.522852,
2008-01-27, 10:04:00,VALID,917.113,VALID,0,VALID,87.7229,VALID,312.532,VALID,22.562,VALID,116,VALID,1.57129,
2008-01-27, 10:05:00,VALID,917.127,VALID,0,VALID,87.1253,VALID,302.666,VALID,22.5944,VALID,113,VALID,2.18253,
2008-01-27, 10:06:00,VALID,917.105,VALID,0,VALID,87.3274,VALID,300.306,VALID,22.6107,VALID,97,VALID,2.56305,
2008-01-27, 10:07:00,VALID,917.127,VALID,0,VALID,87.0401,VALID,311.955,VALID,22.634,VALID,139,VALID,1.91279,
2008-01-27, 10:08:00,VALID,917.117,VALID,0,VALID,87.3859,VALID,324.962,VALID,22.6597,VALID,133,VALID,1.52006,
2008-01-27, 10:09:00,VALID,917.105,VALID,0,VALID,87.9454,VALID,354.322,VALID,22.7595,VALID,167,VALID,0.663318,
2008-01-27, 10:10:00,VALID,917.094,VALID,0,VALID,86.7527,VALID,427.594,VALID,22.8637,VALID,93,VALID,1.78981,
2008-01-27, 10:11:00,VALID,917.093,VALID,0,VALID,85.9096,VALID,366.599,VALID,22.8182,VALID,103,VALID,1.48552,
2008-01-27, 10:12:00,VALID,917.054,VALID,0,VALID,86.5632,VALID,326.253,VALID,22.9224,VALID,99,VALID,1.71837,
2008-01-27, 10:13:00,VALID,917.05,VALID,0,VALID,86.3102,VALID,312.142,VALID,22.9942,VALID,102,VALID,1.40389,
2008-01-27, 10:14:00,VALID,917.033,VALID,0,VALID,85.0691,VALID,318.136,VALID,22.9841,VALID,106,VALID,1.74751,
2008-01-27, 10:15:00,VALID,917.022,VALID,0,VALID,85.3209,VALID,337.154,VALID,23.0066,VALID,79,VALID,2.28011,
2008-01-27, 10:16:00,VALID,917.033,VALID,0,VALID,85.2649,VALID,337.324,VALID,23.0104,VALID,106,VALID,1.08129,
2008-01-27, 10:17:00,VALID,917.004,VALID,0,VALID,86.239,VALID,328.494,VALID,23.0981,VALID,74,VALID,1.59747,
2008-01-27, 10:18:00,VALID,916.992,VALID,0,VALID,85.3857,VALID,337.29,VALID,23.0851,VALID,64,VALID,1.94607,
2008-01-27, 10:19:00,VALID,916.978,VALID,0,VALID,85.5141,VALID,343.251,VALID,23.0556,VALID,98,VALID,1.09718,
2008-01-27, 10:20:00,VALID,916.957,VALID,0,VALID,85.6807,VALID,355.511,VALID,23.189,VALID,98,VALID,1.34728,
2008-01-27, 10:21:00,VALID,916.946,VALID,0,VALID,83.7822,VALID,372.152,VALID,23.1598,VALID,86,VALID,1.93281,
2008-01-27, 10:22:00,VALID,916.966,VALID,0,VALID,84.2374,VALID,389.184,VALID,23.1663,VALID,122,VALID,1.72866,
2008-01-27, 10:23:00,VALID,916.951,VALID,0,VALID,83.4185,VALID,393.225,VALID,23.1988,VALID,119,VALID,0.687099,
2008-01-27, 10:24:00,VALID,916.958,VALID,0,VALID,84.0442,VALID,388.776,VALID,23.3092,VALID,130,VALID,0.908668,
2008-01-27, 10:25:00,VALID,916.948,VALID,0,VALID,84.4333,VALID,384.293,VALID,23.4099,VALID,104,VALID,2.1582,
2008-01-27, 10:26:00,VALID,916.961,VALID,0,VALID,84.3659,VALID,385.346,VALID,23.4332,VALID,110,VALID,1.46134,
2008-01-27, 10:27:00,VALID,916.968,VALID,0,VALID,84.4167,VALID,396.044,VALID,23.5342,VALID,134,VALID,0.991815,
2008-01-27, 10:28:00,VALID,916.969,VALID,0,VALID,82.8412,VALID,416.421,VALID,23.6488,VALID,148,VALID,0.722202,
2008-01-27, 10:29:00,VALID,916.957,VALID,0,VALID,81.4692,VALID,427.475,VALID,23.7203,VALID,146,VALID,2.22887,
2008-01-27, 10:30:00,VALID,916.942,VALID,0,VALID,81.9498,VALID,421.94,VALID,23.6822,VALID,147,VALID,1.71372,
2008-01-27, 10:31:00,VALID,916.931,VALID,0,VALID,82.6238,VALID,419.019,VALID,23.6621,VALID,145,VALID,1.55682,
2008-01-27, 10:32:00,VALID,916.941,VALID,0,VALID,83.9691,VALID,434.573,VALID,23.6855,VALID,109,VALID,1.81704,
2008-01-27, 10:33:00,VALID,916.942,VALID,0,VALID,82.6047,VALID,486.569,VALID,23.6267,VALID,100,VALID,1.31858,
2008-01-27, 10:34:00,VALID,916.927,VALID,0,VALID,82.9887,VALID,400.714,VALID,23.6034,VALID,73,VALID,0.967188,